TimeCDT,TemperatureF,Dew PointF,Humidity,Sea Level PressureIn,VisibilityMPH,Wind Direction,Wind SpeedMPH,Gust SpeedMPH,PrecipitationIn,Events,Conditions,WindDirDegrees,DateUTC
12:10 AM,73.4,68.0,83,29.94,10.0,SSE,10.4,-,N/A,,Clear,160,2013-07-22 05:10:00
12:30 AM,73.4,68.0,83,29.94,10.0,SSE,9.2,-,N/A,,Clear,160,2013-07-22 05:30:00
12:50 AM,73.4,68.0,83,29.94,10.0,South,9.2,-,N/A,,Clear,170,2013-07-22 05:50:00
1:10 AM,73.4,68.0,83,29.94,10.0,South,8.1,-,N/A,,Clear,180,2013-07-22 06:10:00
1:30 AM,73.4,68.0,83,29.93,10.0,South,9.2,-,N/A,,Partly Cloudy,190,2013-07-22 06:30:00
1:50 AM,73.4,68.0,83,29.93,10.0,South,8.1,-,N/A,,Partly Cloudy,190,2013-07-22 06:50:00
2:10 AM,73.4,68.0,83,29.92,10.0,South,8.1,-,N/A,,Clear,170,2013-07-22 07:10:00
2:30 AM,73.4,69.8,88,29.92,10.0,South,8.1,-,N/A,,Partly Cloudy,170,2013-07-22 07:30:00
2:50 AM,73.4,69.8,88,29.91,10.0,South,9.2,-,N/A,,Clear,180,2013-07-22 07:50:00
3:10 AM,73.4,69.8,88,29.91,10.0,South,9.2,-,N/A,,Partly Cloudy,180,2013-07-22 08:10:00
3:30 AM,73.4,69.8,88,29.91,10.0,South,9.2,-,N/A,,Clear,190,2013-07-22 08:30:00
3:50 AM,73.4,69.8,88,29.91,10.0,South,9.2,-,N/A,,Clear,190,2013-07-22 08:50:00
4:10 AM,75.2,69.8,83,29.90,10.0,South,8.1,-,N/A,,Clear,190,2013-07-22 09:10:00
4:30 AM,75.2,71.6,89,29.91,10.0,SSW,6.9,-,N/A,,Partly Cloudy,210,2013-07-22 09:30:00
4:50 AM,75.2,69.8,83,29.91,10.0,SSW,9.2,-,N/A,,Scattered Clouds,210,2013-07-22 09:50:00
5:10 AM,75.2,69.8,83,29.92,10.0,SSW,9.2,17.3,N/A,,Mostly Cloudy,210,2013-07-22 10:10:00
5:30 AM,75.2,71.6,89,29.93,9.0,SW,6.9,-,N/A,Rain,Light Rain,230,2013-07-22 10:30:00
5:50 AM,75.2,71.6,89,29.92,10.0,SSW,8.1,-,N/A,Rain,Light Rain,200,2013-07-22 10:50:00
6:10 AM,75.2,71.6,89,29.91,10.0,South,5.8,-,N/A,,Overcast,190,2013-07-22 11:10:00
6:30 AM,75.2,71.6,89,29.91,10.0,SSW,8.1,-,N/A,Thunderstorm,Overcast,200,2013-07-22 11:30:00
6:50 AM,75.2,71.6,89,29.91,10.0,SW,6.9,-,N/A,,Overcast,220,2013-07-22 11:50:00
7:10 AM,75.2,71.6,89,29.91,10.0,SSW,8.1,-,N/A,,Overcast,200,2013-07-22 12:10:00
7:30 AM,77.0,71.6,83,29.92,10.0,SSW,6.9,-,N/A,,Overcast,210,2013-07-22 12:30:00
7:50 AM,77.0,71.6,83,29.92,10.0,SW,11.5,16.1,N/A,,Overcast,230,2013-07-22 12:50:00
8:10 AM,77.0,71.6,83,29.93,10.0,WSW,11.5,18.4,N/A,Thunderstorm,Overcast,240,2013-07-22 13:10:00
8:30 AM,77.0,71.6,83,29.96,10.0,West,13.8,19.6,N/A,Thunderstorm,Overcast,260,2013-07-22 13:30:00
8:50 AM,71.6,66.2,83,30.00,0.5,WNW,8.1,25.3,0.02,Rain-Thunderstorm,Heavy Rain,290,2013-07-22 13:50:00
9:10 AM,69.8,66.2,88,29.98,3.0,West,8.1,-,0.01,Rain-Thunderstorm,Light Rain,280,2013-07-22 14:10:00
9:30 AM,68.0,64.4,88,29.99,3.0,WSW,12.7,-,0.03,Rain-Thunderstorm,Light Rain,250,2013-07-22 14:30:00
9:50 AM,68.0,64.4,88,29.97,10.0,West,4.6,-,0.04,Rain-Thunderstorm,Light Rain,270,2013-07-22 14:50:00
10:10 AM,68.0,66.2,94,29.97,10.0,WSW,8.1,-,0.01,Rain,Light Rain,240,2013-07-22 15:10:00
10:30 AM,68.0,66.2,94,29.99,5.0,WSW,8.1,-,0.01,Rain-Thunderstorm,Rain,250,2013-07-22 15:30:00
10:50 AM,68.0,66.2,94,30.00,4.0,WSW,5.8,-,0.02,Rain-Thunderstorm,Light Rain,240,2013-07-22 15:50:00
11:10 AM,68.0,66.2,94,29.99,5.0,SW,5.8,-,0.01,Rain-Thunderstorm,Light Rain,230,2013-07-22 16:10:00
11:30 AM,68.0,66.2,94,29.99,2.5,SW,3.5,-,0.01,Rain,Rain,220,2013-07-22 16:30:00
11:50 AM,68.0,66.2,94,29.98,2.5,South,3.5,-,0.02,Rain,Rain,180,2013-07-22 16:50:00
12:10 PM,68.0,66.2,94,29.98,4.0,South,4.6,-,N/A,Rain-Thunderstorm,Light Rain,190,2013-07-22 17:10:00
12:30 PM,68.0,66.2,94,29.98,5.0,South,6.9,-,0.01,Rain-Thunderstorm,Light Rain,170,2013-07-22 17:30:00
12:50 PM,68.0,66.2,94,29.98,9.0,South,6.9,-,0.01,Rain-Thunderstorm,Light Rain,180,2013-07-22 17:50:00
1:10 PM,68.0,66.2,94,29.97,10.0,SSW,5.8,-,0.01,Thunderstorm,Partly Cloudy,200,2013-07-22 18:10:00
1:30 PM,68.0,66.2,94,29.96,10.0,South,6.9,-,0.01,Thunderstorm,Clear,180,2013-07-22 18:30:00
1:50 PM,68.0,66.2,94,29.96,10.0,SSW,5.8,-,0.01,Thunderstorm,Partly Cloudy,200,2013-07-22 18:50:00
2:10 PM,69.8,66.2,88,29.96,10.0,SSW,9.2,-,0.01,Rain,Light Rain,210,2013-07-22 19:10:00
2:30 PM,71.6,68.0,88,29.96,10.0,SW,6.9,-,0.01,,Scattered Clouds,220,2013-07-22 19:30:00
2:50 PM,71.6,68.0,88,29.95,10.0,SSW,6.9,-,0.01,,Scattered Clouds,210,2013-07-22 19:50:00
3:10 PM,73.4,68.0,83,29.93,10.0,SSW,4.6,-,N/A,,Mostly Cloudy,200,2013-07-22 20:10:00
3:30 PM,73.4,69.8,88,29.92,10.0,WSW,5.8,-,0.01,,Mostly Cloudy,240,2013-07-22 20:30:00
3:50 PM,75.2,69.8,83,29.92,10.0,WSW,5.8,-,0.01,,Mostly Cloudy,240,2013-07-22 20:50:00
4:10 PM,77.0,71.6,83,29.92,10.0,WSW,6.9,-,N/A,,Mostly Cloudy,250,2013-07-22 21:10:00
4:30 PM,77.0,71.6,83,29.91,10.0,West,8.1,-,N/A,,Mostly Cloudy,280,2013-07-22 21:30:00
4:50 PM,78.8,69.8,74,29.91,10.0,WSW,5.8,-,N/A,,Partly Cloudy,250,2013-07-22 21:50:00
5:10 PM,78.8,69.8,74,29.90,10.0,West,6.9,-,N/A,,Clear,270,2013-07-22 22:10:00
5:30 PM,80.6,69.8,70,29.90,10.0,NW,6.9,-,N/A,,Clear,310,2013-07-22 22:30:00
5:50 PM,80.6,69.8,70,29.91,10.0,WNW,4.6,-,0.01,,Clear,290,2013-07-22 22:50:00
6:10 PM,80.6,69.8,70,29.91,10.0,West,3.5,-,N/A,,Clear,270,2013-07-22 23:10:00
6:30 PM,80.6,71.6,74,29.92,10.0,SW,6.9,-,N/A,,Partly Cloudy,220,2013-07-22 23:30:00
6:50 PM,80.6,71.6,74,29.91,10.0,SW,6.9,-,N/A,,Partly Cloudy,230,2013-07-22 23:50:00
7:10 PM,78.8,71.6,78,29.91,10.0,South,3.5,-,N/A,,Clear,180,2013-07-23 00:10:00
7:30 PM,77.0,71.6,83,29.91,10.0,South,4.6,-,N/A,,Clear,170,2013-07-23 00:30:00
7:50 PM,75.2,71.6,89,29.91,10.0,South,5.8,-,N/A,,Clear,190,2013-07-23 00:50:00
8:10 PM,75.2,71.6,89,29.92,10.0,SSE,5.8,-,N/A,,Scattered Clouds,160,2013-07-23 01:10:00
8:30 PM,75.2,71.6,89,29.93,10.0,South,5.8,-,N/A,,Scattered Clouds,170,2013-07-23 01:30:00
8:50 PM,75.2,71.6,89,29.94,10.0,SSE,5.8,-,N/A,,Scattered Clouds,160,2013-07-23 01:50:00
9:10 PM,75.2,71.6,89,29.94,10.0,South,6.9,-,N/A,,Mostly Cloudy,170,2013-07-23 02:10:00
9:30 PM,-9999,-9999,N/A,-9999,-9999.0,North,-9999.0,-,N/A,,Unknown,0,2013-07-23 02:30:00
9:50 PM,-9999,-9999,N/A,-9999,-9999.0,North,-9999.0,-,N/A,,Unknown,0,2013-07-23 02:50:00
10:10 PM,-9999,-9999,N/A,-9999,-9999.0,North,-9999.0,-,N/A,,Unknown,0,2013-07-23 03:10:00
10:30 PM,73.4,71.6,94,29.93,10.0,South,3.5,-,N/A,,Unknown,170,2013-07-23 03:30:00
10:50 PM,73.4,69.8,88,29.93,10.0,SE,4.6,-,N/A,,Partly Cloudy,140,2013-07-23 03:50:00
11:10 PM,73.4,71.6,94,29.93,10.0,Calm,Calm,-,N/A,,Mostly Cloudy,0,2013-07-23 04:10:00
11:30 PM,73.4,71.6,94,29.93,10.0,SE,3.5,-,N/A,,Overcast,140,2013-07-23 04:30:00
11:50 PM,73.4,71.6,94,29.93,7.0,SE,3.5,-,N/A,,Overcast,140,2013-07-23 04:50:00